Regional Weather Roundup
Issued by NWS

Home | Current Version | Previous Version | Text Only | Print | Product List | Glossary Off
Versions: 1 2 3 4 5 6 7 8 9 10 11 12 13 14 15 16 17 18 19 20 21 22 23 24 25 26 27 28 29 30 31 32 33 34 35 36 37 38 39 40 41 42 43 44 45 46 47 48 49 50

000
ASUS43 KLOT 230803
RWRIL

ILLINOIS REGIONAL WEATHER ROUNDUP
NATIONAL WEATHER SERVICE CHICAGO/ROMEOVILLE IL
300 AM CDT MON APR 23 2018

NOTE: "FAIR" INDICATES FEW OR NO CLOUDS BELOW 12,000 FEET WITH NO
SIGNIFICANT WEATHER AND/OR OBSTRUCTIONS TO VISIBILITY.

* THESE STATIONS ARE NOT UNDER NWS QUALITY CONTROL. THEY ALSO MAY NOT
  REPORT WEATHER SUCH AS PRECIPITATION OR FOG.

ILZ001-002-007-009-015-016-024-230900-
NORTHWEST ILLINOIS

CITY           SKY/WX    TMP DP  RH WIND       PRES   REMARKS
MOLINE         FAIR      45  29  53 NE6       30.17F
STERLING*      FAIR      44  29  55 NE9       30.19F
SAVANNA*       FAIR      44  29  56 NE6       30.21F
$$

ILZ003-004-008-010-011-017-018-230900-
NORTH CENTRAL ILLINOIS

CITY           SKY/WX    TMP DP  RH WIND       PRES   REMARKS
ROCKFORD       CLOUDY    42  26  53 NE8       30.24F
FREEPORT*      FAIR      39  29  67 NE6       30.24F
ROCHELLE*      FAIR      39  29  66 NE9       30.21F WCI  33
DE KALB*       FAIR      39  28  66 NE8       30.21F WCI  33
PERU*          FAIR      45  32  61 NE10      30.18F
$$

ILZ005-006-012>014-019>023-230900-
NORTHEAST ILLINOIS

CITY           SKY/WX    TMP DP  RH WIND       PRES   REMARKS
CHICAGO-OHARE  MOCLDY    43  30  60 NE8       30.20F
CHICAGO-MIDWAY MOCLDY    45  29  53 E6        30.20F
AURORA         FAIR      42  29  59 NE8       30.19F
LANSING*       FAIR      42  32  67 NE3       30.19F
JOLIET*        FAIR      45  31  56 CALM      30.19S
WAUKEGAN       FAIR      35  30  82 N5        30.22F WCI  31
DUPAGE AIRPORT FAIR      39  30  70 N5        30.19F
KANKAKEE*      FAIR      41  28  60 NE5       30.17F
WHEELING       FAIR      43  30  60 CALM      30.23F
MORRIS*        FAIR      40  31  69 N5        30.18F
ROMEOVILLE*    FAIR      42  29  60 E7        30.19S
NORTHERLY ISL    N/A     42  31  65 N5          N/A
$$

LMZ740>746-230900-
SOUTHERN LAKE MICHIGAN

STATION/POSITION SKY/WX   TEMP    WIND        PRES    VSBY  WAVE
                          AIR SEA DIR/SP/G                  HT/PER
                          (F)     (DEG/KT/KT) (MB)    (MI)  (FT/S)
HARRISON CRIB              45      60/ 10/ 10   N/A
BURNHAM HARBOR             42      10/  5/  5   N/A
CALUMET HARBOR             43      40/  5/  8 1022.1
BURNS HARBOR               45      70/  5/  7 1023.0F
MICHIGAN CITY              48      80/  9/ 11   N/A
$$

ILZ025>027-034>036-040-047-049-050-058-095>099-230900-
WEST-CENTRAL ILLINOIS

CITY           SKY/WX    TMP DP  RH WIND       PRES   REMARKS
QUINCY         CLOUDY    52  34  50 NE12      30.09F
GALESBURG*     FAIR      50  32  50 NE10      30.15F
MACOMB*        PTCLDY    48  32  53 NE12      30.14F
JACKSONVILLE*  CLOUDY    53  33  46 NE10      30.08S
PITTSFIELD*    CLOUDY    55  34  45 N9        30.08F
$$

ILZ028>032-037-038-041>044-048-051>054-059>061-230900-
CENTRAL ILLINOIS

CITY           SKY/WX    TMP DP  RH WIND       PRES   REMARKS
PONTIAC        FAIR      42  32  66 NE10      30.16F
BLOOMINGTON    FAIR      45  30  55 NE12      30.14F
DECATUR        CLOUDY    51  32  48 NE14      30.07F
PEORIA         FAIR      51  27  39 E17G25    30.14F
LACON*         FAIR      46  29  51 NE3       30.16S
LINCOLN*       MOCLDY    52  32  45 NE13G21   30.10S
SPRINGFIELD    CLOUDY    54  33  45 NE16      30.09S
TAYLORVILLE    CLOUDY    54  32  44 NE13      30.06S
$$

ILZ033-039-045-046-055>057-062-063-230900-
EAST-CENTRAL ILLINOIS

CITY           SKY/WX    TMP DP  RH WIND       PRES   REMARKS
CHAMPAIGN      FAIR      50  30  46 NE15      30.10F
DANVILLE*      FAIR      46  28  48 NE8       30.10S
RANTOUL*       FAIR      48  29  47 NE12      30.12F
MATTOON        CLOUDY    53  34  48 NE15      30.04F
PARIS*         FAIR      51  32  49 NE13      30.08F
$$

ILZ079-100>102-230900-
SOUTHWEST ILLINOIS

CITY           SKY/WX    TMP DP  RH WIND       PRES   REMARKS
BELLEVILLE     CLOUDY    54  42  64 NE7       29.97F
CAHOKIA*       LGT RAIN  54  42  64 NE9       29.99F
SPARTA*        LGT RAIN  51  49  95 NE10      29.96F
$$

ILZ064>066-069>071-074>076-080>082-084>086-088>090-092>094-230900-
SOUTH-CENTRAL ILLINOIS

CITY           SKY/WX    TMP DP  RH WIND       PRES   REMARKS
CARBONDALE     LGT RAIN  51  47  86 NE13G23   29.90F
CAIRO*         LGT RAIN  55  53  95 NE21G31   29.79F
EFFINGHAM*     CLOUDY    56  37  49 NE6       30.03F
MARION         LGT RAIN  50  49  98 NE14      29.90F
MT. VERNON     LGT RAIN  51  44  77 NE13      29.96F
CENTRALIA*     LGT RAIN  55  42  60 NE9G18    29.98S
SALEM*         LGT RAIN  56  39  53 NE7       30.00R
METROPOLIS*    RAIN      55  53  94 NE14G28   29.81F
$$

ILZ067-068-072-073-078-083-087-091-230900-
SOUTHEAST ILLINOIS

CITY           SKY/WX    TMP DP  RH WIND       PRES   REMARKS
LAWRENCEVILLE  CLOUDY    58  37  45 NE8       30.02S
FLORA*         LGT RAIN  55  41  58 NE6       30.00F
FAIRFIELD*     RAIN      52  44  75 NE9       29.96F
HARRISBURG*    RAIN      51  49  93 NE13G23   29.91F
ROBINSON*      CLOUDY    57  33  40 NE10G18   30.03S
CARMI*         LGT RAIN  51  46  84 NE14      29.94F
$$

ABBREVIATIONS USED IN REMARKS
   TC - TEMPERATURE IN CELSIUS
  WCI - WIND CHILL INDEX
   HX - HEAT INDEX
  VSB - VISIBILITY
$$





USA.gov is the U.S. government's official web portal to all federal, state and local government web resources and services.